sat.trackr.live / text

‹ back to catalog

KUIPER-00114

NORAD 65151 · 2025-171V

PAYLOAD ACTIVE UNKNOWN

§ Identity

Operator
Country
US
Launch date
2025-08-11
Launch site
AFETR
Launch vehicle
Mass (kg)
RCS (m²)

External: N2YO · Heavens-Above · Gunter

§ Orbital elements

Epoch: 2026-05-25T04:04:35.395968Z

Period
97.30 min
Inclination
51.8973°
Eccentricity
0.0000350
Mean motion
14.79933142 rev/d
Perigee alt
629.3 km
Apogee alt
629.8 km
Semi-major
7,007.7 km
B*
6.7428e-5
RAAN
197.4030°
Arg perigee
89.9159°
Mean anomaly
270.1844°
Rev number
4,396

§ Raw data

KUIPER-001141 65151U 25171V   26145.16985412  .00000293  00000+0  67428-4 0  99922 65151  51.8973 197.4030 0000350  89.9159 270.1844 14.79933142 43967

JSON: /api/v1/satellites/65151 · /tle

For live sub-satellite position, see the globe view (requires WebGL).

§ Visibility from observer

Set your observer location to see the next 7 days of passes ≥ 10°. The values pass through the URL so the page stays shareable.

No JS? Fill the form by hand. The geolocation button needs JavaScript.